Location: Marcé
(47.5801°N, 0.3280°W)
Time: 12:19:55
(UTC+01:00)

deb Explorer IX - Pass Details

Date: 01 December 2021
Orbit: 544 x 1082 km, 38.8° (Epoch: 17 January)

Event Time Altitude Azimuth Distance (km) Brightness Sun altitude
Rises 12:22:42 0° 220° (SW) 2,859 ? 20.3°
Reaches altitude 10° 12:25:51 10° 199° (SSW) 1,884 ? 20.3°
Maximum altitude 12:28:24 16° 161° (SSE) 1,514 ? 20.4°
Drops below altitude 10° 12:30:54 10° 124° (SE) 1,815 ? 20.4°
Sets 12:33:50 0° 101° (ESE) 2,697 ? 20.4°
